Date String (YYYY-MM-DD hh:mm:ss) UTC,Instrument flags,Ambient pressure (hPa),Sample flow (lpm),Bypass flow (lpm),Sample temperature (°C),Ambient temperature (°C),ASC tube jacket temperature (°C),LED temperature (°C),Box temperature (°C),Sample RH (%),Span deviation,Mass concentration (μg/m³),Mass concentration (μg/m³),Mass concentration (μg/m³)
DateTimeUTC,F1_M11,P_M11,Q1_M11,Q2_M11,T1_M11,T2_M11,T3_M11,T4_M11,T5_M11,U1_M11,ZSPAN_M11,X0_M11,X2_M11,X1_M11
2021-12-15 05:00:00,,0814.7,5.01,0.00,27.5,26.6,00.0,36.6,29.2,08.1,0004.8,0030.56,0007.20,0004.74
2021-12-15 05:01:00,,0814.9,5.01,0.00,27.5,26.6,00.0,36.6,29.2,08.1,0004.7,0030.45,0007.40,0004.82
2021-12-15 05:02:00,,0814.8,5.00,0.00,27.5,26.6,00.0,36.6,29.2,08.1,0004.8,0029.89,0007.65,0004.93
2021-12-15 05:03:00,,0814.6,5.01,0.00,27.5,26.6,00.0,36.5,29.1,08.1,0004.3,0028.55,0007.82,0005.01
2021-12-15 05:04:00,,0814.5,4.99,0.00,27.5,26.6,00.0,36.5,29.1,08.1,0005.7,0028.97,0008.06,0005.09
2021-12-15 05:05:00,,0814.4,5.02,0.00,27.5,26.6,00.0,36.5,29.1,08.2,0004.4,0028.91,0008.21,0005.16
2021-12-15 05:06:00,,0814.4,4.98,0.00,27.5,26.6,00.0,36.5,29.2,08.2,0006.4,0029.08,0008.29,0005.19
2021-12-15 05:07:00,,0814.3,5.00,0.00,27.5,26.6,00.0,36.5,29.2,08.2,0007.0,0030.10,0008.40,0005.26
2021-12-15 05:08:00,,0814.3,5.00,0.00,27.5,26.6,00.0,36.5,29.2,08.2,0006.7,0030.05,0008.55,0005.34
2021-12-15 05:09:00,,0814.4,4.99,0.00,27.5,26.6,00.0,36.5,29.2,08.2,0010.0,0030.33,0008.71,0005.43
2021-12-15 05:10:00,,0814.3,5.02,0.00,27.5,26.6,00.0,36.5,29.2,08.2,0011.8,0031.05,0008.72,0005.46
2021-12-15 05:11:00,,0814.4,5.00,0.00,27.5,26.6,00.0,36.5,29.2,08.3,0011.9,0030.45,0008.73,0005.40
2021-12-15 05:12:00,,0814.3,5.00,0.00,27.5,26.5,00.0,36.5,29.2,08.3,0010.4,0031.87,0008.60,0005.34
2021-12-15 05:13:00,,0814.6,5.02,0.00,27.5,26.5,00.0,36.5,29.2,08.3,0007.6,0031.33,0008.43,0005.25
2021-12-15 05:14:00,,0814.3,5.00,0.00,27.5,26.5,00.0,36.5,29.2,08.1,-001.1,0031.88,0008.37,0005.24
2021-12-15 05:15:00,,0814.3,4.98,0.00,27.5,26.5,00.0,36.5,29.2,08.0,-000.2,0032.05,0008.32,0005.28
2021-12-15 05:16:00,,0814.3,5.02,0.00,27.4,26.5,00.0,36.4,29.2,07.9,0000.3,0034.47,0008.41,0005.38
2021-12-15 05:17:00,,0814.5,4.98,0.00,27.4,26.5,00.0,36.4,29.1,08.0,-000.6,0036.49,0008.63,0005.48
2021-12-15 05:18:00,,0814.3,5.01,0.00,27.4,26.5,00.0,36.4,29.1,08.0,-001.5,0035.77,0008.76,0005.56
2021-12-15 05:19:00,,0814.2,5.00,0.00,27.4,26.5,00.0,36.4,29.1,08.0,-001.9,0035.04,0008.83,0005.61
2021-12-15 05:20:00,,0814.5,4.99,0.00,27.4,26.5,00.0,36.4,29.1,08.1,-001.5,0035.11,0008.88,0005.63
2021-12-15 05:21:00,,0814.3,4.99,0.00,27.4,26.5,00.0,36.4,29.1,08.1,-000.9,0035.87,0008.99,0005.68
2021-12-15 05:22:00,,0814.1,5.02,0.00,27.4,26.5,00.0,36.4,29.1,08.1,0002.3,0038.66,0009.08,0005.74
2021-12-15 05:23:00,,0814.1,4.99,0.00,27.4,26.5,00.0,36.4,29.1,08.1,0005.8,0038.61,0009.21,0005.81
2021-12-15 05:24:00,,0814.1,4.99,0.00,27.4,26.5,00.0,36.4,29.1,08.1,0006.0,0039.86,0009.38,0005.91
2021-12-15 05:25:00,,0814.1,5.01,0.00,27.4,26.5,00.0,36.4,29.1,08.0,0004.8,0040.50,0009.55,0006.04
2021-12-15 05:26:00,,0814.3,4.99,0.00,27.4,26.5,00.0,36.4,29.1,07.9,0003.9,0040.56,0009.71,0006.12
2021-12-15 05:27:00,,0814.2,5.01,0.00,27.4,26.5,00.0,36.4,29.1,07.9,0003.7,0040.99,0009.88,0006.19
2021-12-15 05:28:00,,0814.4,4.99,0.00,27.4,26.5,00.0,36.4,29.1,07.9,0004.1,0039.73,0009.96,0006.26
2021-12-15 05:29:00,,0814.1,5.00,0.00,27.4,26.4,00.0,36.4,29.1,07.9,0005.0,0041.10,0010.06,0006.31
2021-12-15 05:30:00,,0814.0,5.00,0.00,27.4,26.4,00.0,36.4,29.1,07.9,0005.6,0043.61,0010.12,0006.40
2021-12-15 05:31:00,,0814.0,5.01,0.00,27.4,26.5,00.0,36.4,29.1,07.9,0005.7,0044.65,0010.18,0006.49
2021-12-15 05:32:00,,0814.1,5.00,0.00,27.4,26.4,00.0,36.4,29.1,07.9,0005.8,0045.42,0010.37,0006.58
2021-12-15 05:33:00,,0814.0,5.00,0.00,27.4,26.4,00.0,36.4,29.1,07.9,0006.3,0044.29,0010.47,0006.69
2021-12-15 05:34:00,,0814.4,5.00,0.00,27.4,26.4,00.0,36.4,29.1,07.9,0006.6,0046.26,0010.61,0006.83
2021-12-15 05:35:00,,0814.2,5.01,0.00,27.3,26.4,00.0,36.3,29.1,07.9,0007.1,0047.43,0010.67,0006.93
2021-12-15 05:36:00,,0814.0,4.99,0.00,27.3,26.4,00.0,36.3,29.0,07.9,0007.5,0047.17,0010.77,0006.99
2021-12-15 05:37:00,,0814.0,5.01,0.00,27.3,26.4,00.0,36.3,29.0,08.0,0007.7,0048.76,0010.81,0007.00
2021-12-15 05:38:00,,0814.2,5.01,0.00,27.3,26.4,00.0,36.3,29.1,08.0,0008.0,0047.88,0010.84,0007.00
2021-12-15 05:39:00,,0814.0,4.99,0.00,27.3,26.4,00.0,36.3,29.1,08.0,0008.9,0047.49,0010.78,0007.00
2021-12-15 05:40:00,,0814.3,5.01,0.00,27.3,26.4,00.0,36.3,29.0,08.0,0009.4,0048.68,0010.76,0007.00
2021-12-15 05:41:00,,0814.2,4.99,0.00,27.3,26.4,00.0,36.3,29.0,08.0,0009.2,0047.65,0010.68,0006.99
2021-12-15 05:42:00,,0814.1,5.00,0.00,27.3,26.4,00.0,36.3,29.0,08.0,0007.9,0046.67,0010.63,0006.98
2021-12-15 05:43:00,,0814.2,5.00,0.00,27.3,26.4,00.0,36.3,29.0,08.0,0007.5,0047.10,0010.61,0006.95
2021-12-15 05:44:00,,0814.0,5.00,0.00,27.3,26.4,00.0,36.3,29.0,08.1,0006.3,0047.23,0010.55,0006.92
2021-12-15 05:45:00,,0814.0,4.98,0.00,27.3,26.4,00.0,36.3,29.0,08.2,0005.2,0046.05,0010.55,0006.88
2021-12-15 05:46:00,,0814.0,5.01,0.00,27.3,26.4,00.0,36.3,29.0,08.2,0004.8,0045.98,0010.57,0006.83
2021-12-15 05:47:00,,0814.1,5.00,0.00,27.3,26.4,00.0,36.3,29.0,08.3,0005.4,0045.62,0010.55,0006.78
2021-12-15 05:48:00,,0814.1,5.00,0.00,27.3,26.4,00.0,36.3,29.0,08.3,0006.0,0044.63,0010.43,0006.74
2021-12-15 05:49:00,,0814.2,5.01,0.00,27.3,26.4,00.0,36.3,29.0,08.3,0005.9,0046.22,0010.32,0006.70
2021-12-15 05:50:00,,0814.1,5.00,0.00,27.3,26.3,00.0,36.3,29.0,08.2,0005.6,0045.73,0010.33,0006.69
2021-12-15 05:51:00,,0814.1,5.00,0.00,27.3,26.3,00.0,36.3,29.0,08.2,0005.0,0043.56,0010.28,0006.66
2021-12-15 05:52:00,,0814.3,5.01,0.00,27.3,26.3,00.0,36.3,29.0,08.2,0004.3,0043.06,0010.28,0006.63
2021-12-15 05:53:00,,0814.0,4.99,0.00,27.3,26.3,00.0,36.3,29.0,08.3,0004.5,0042.87,0010.31,0006.61
2021-12-15 05:54:00,,0814.0,5.01,0.00,27.2,26.3,00.0,36.2,28.9,08.3,0004.7,0041.34,0010.27,0006.60
2021-12-15 05:55:00,,0814.2,4.99,0.00,27.2,26.3,00.0,36.2,28.9,08.3,0003.7,0040.49,0010.25,0006.58
2021-12-15 05:56:00,,0814.4,5.01,0.00,27.2,26.3,00.0,36.2,28.9,08.3,0003.6,0039.60,0010.17,0006.54
2021-12-15 05:57:00,,0814.3,4.99,0.00,27.2,26.3,00.0,36.2,29.0,08.3,0000.9,0037.30,0010.10,0006.48
2021-12-15 05:58:00,,0814.0,5.01,0.00,27.2,26.3,00.0,36.2,29.0,08.3,-000.9,0036.42,0009.90,0006.42
2021-12-15 05:59:00,,0813.9,5.01,0.00,27.2,26.3,00.0,36.2,29.0,08.4,-001.9,0036.70,0009.84,0006.34
